Regional Weather Roundup
Issued by NWS

Home | Current Version | Previous Version | Graphics & Text | Print | Product List | Glossary On
Versions: 1 2 3 4 5 6 7 8 9 10 11 12 13 14 15 16 17 18 19 20 21 22 23 24 25 26 27 28 29 30 31 32 33 34 35 36 37 38 39 40 41 42 43 44 45 46 47 48 49 50
000
ASUS43 KIND 212209
RWRIN

WEATHER ROUNDUP FOR INDIANA
NATIONAL WEATHER SERVICE INDIANAPOLIS IN
600 PM EDT FRI JUL 21 2017

NOTE: "FAIR" INDICATES FEW OR NO CLOUDS BELOW 12,000 FEET WITH NO
SIGNIFICANT WEATHER AND/OR OBSTRUCTIONS TO VISIBILITY.

* - STATION DOES NOT REPORT WEATHER SUCH AS PRECIPITATION OR FOG.

+ - STATION NOT QUALITY CONTROLLED BY THE NATIONAL WEATHER SERVICE.
    USE DATA WITH CAUTION...ESPECIALLY DEWPOINT AND RELATIVE
    HUMIDITY OBSERVATIONS.

INZ001>003-010>013-019-020-212300-
NORTHWEST INDIANA

CITY           SKY/WX    TMP DP  RH WIND       PRES   REMARKS
GARY /AIRPORT/ PTSUNNY   86  70  58 S6        29.94F
KNOX *+        MOSUNNY   82  73  74 S6        29.95F
LA PORTE +     MOSUNNY   85  73  68 S7        29.96F
MICHIGAN CITY+ PTSUNNY   84  72  65 S5        29.95F
MONTICELLO +   SUNNY     85  74  70 CALM      29.95F
RENSSELAER +   MOSUNNY   86  73  66 SE7       29.95S
VALPARAISO     MOSUNNY   85  74  69 S8        29.95F

$$

LMZ046-743>745-212300-
SOUTHERN LAKE MICHIGAN

STATION/POSITION TIME  TEMP    WIND        PRES    WAVE
                       AIR SEA DIR/SP/G            HT
                 (UTC) (F)     (DEG/KT/KT) (MB)    (FT)
BURNS HARBOR     2140   86     200/  9/ 10 1013.9F
MICHIGAN CITY    2140   78      20/  9/ 10   N/A
5NW MICH CITY    2200   78 77   80/  8/  8   N/A     0

$$

INZ004-005-014>016-021>024-212300-
NORTH CENTRAL INDIANA

CITY           SKY/WX    TMP DP  RH WIND       PRES   REMARKS
ELKHART        MOSUNNY   86  63  45 SW9       29.96F
GOSHEN         SUNNY     86  68  54 SW8       29.96F
LOGANSPORT +   SUNNY     82  72  69 S3        29.97F
PERU/GRISSOM   SUNNY     84  73  70 CALM      29.96F
ROCHESTER +    SUNNY     86  72  62 SW6       29.97F
SOUTH BEND     MOSUNNY   85  69  58 SW8       29.96F
WARSAW +       SUNNY     84  66  54 SW5       29.97S

$$

INZ006>009-017-018-025>027-212300-
NORTHEAST INDIANA

CITY           SKY/WX    TMP DP  RH WIND       PRES   REMARKS
AUBURN +       SUNNY     88  68  51 S9        29.97F
FORT WAYNE     CLOUDY    84  70  62 S7        29.97F
HUNTINGTON +   CLOUDY    82  72  70 S6        29.97S
KENDALLVILLE + SUNNY     85  65  51 SW7       29.98S

$$

INZ028-029-035-036-043>045-051>053-212300-
WEST CENTRAL INDIANA

CITY           SKY/WX    TMP DP  RH WIND       PRES   REMARKS
GREENCASTLE +  CLOUDY    88  77  70 CALM      29.96F HX 100
LAFAYETTE      SUNNY     86  76  71 SE8       29.94F HX  96
TERRE HAUTE    LGT RAIN  85  79  82 CALM      29.93F HX  98

$$

INZ030>032-037>040-046>048-054>057-064-065-212300-
CENTRAL INDIANA

CITY           SKY/WX    TMP DP  RH WIND       PRES   REMARKS
CP ATTERBURY + CLOUDY    90  72  55 CALM      29.95F HX  96
COLUMBUS       MOSUNNY   91  66  43 CALM      29.95F
FRANKFORT +    CLOUDY    88  77  70 CALM      29.98F HX  99
GREENWOOD *+   CLOUDY    86  73  64 CALM      29.97F
INDIANAPOLIS   PTSUNNY   88  74  63 E6        29.95F HX  96
-EAGLE CREEK   CLOUDY    89  73  59 CALM      29.95F HX  97
KOKOMO +       SUNNY     83  75  77 S8        29.99S
MARION +       CLOUDY    82  72  69 CALM      29.99S
MT COMFORT *+  CLOUDY    82  73  74 E6        29.99F
SHELBYVILLE    CLOUDY    86  75  69 NE6       29.96F HX  95
ZIONSVILLE +   CLOUDY    84  74  72 E6        29.98F

$$

INZ033-034-041-042-049-050-058-059-212300-
EAST CENTRAL INDIANA

CITY           SKY/WX    TMP DP  RH WIND       PRES   REMARKS
MUNCIE         MOSUNNY   85  73  67 E3        29.98F
RICHMOND +     MOSUNNY   81  70  69 W6        30.01F

$$

INZ060-061-067>069-081>083-085>088-212300-
SOUTHWEST INDIANA

CITY           SKY/WX    TMP DP  RH WIND       PRES   REMARKS
EVANSVILLE     MOSUNNY   97  72  44 SW7       29.93F HX 105
HUNTINGBURG *+ CLOUDY    94  78  60 S8        29.95F HX 110

$$

INZ062-063-066-070>080-084-089>092-212300-
SOUTH CENTRAL AND SOUTHEAST INDIANA

CITY           SKY/WX    TMP DP  RH WIND       PRES   REMARKS
BEDFORD +      SUNNY     93  73  52 SW8       29.94F HX 102
BLOOMINGTON    CLOUDY    91  74  57 SW7       29.94F HX 100
MADISON *+     SUNNY     93  70  46 SW7       29.98F HX  99
NORTH VERNON + MOSUNNY   90  75  62 SW8       29.96F HX 100
SEYMOUR +      SUNNY     95  75  52 SW7       29.93F HX 107

$$





USA.gov is the U.S. government's official web portal to all federal, state and local government web resources and services.